Showing default

OPS 9381 (GGTS), 2207

Orbit data source: Space-Track

OPS 9381 (GGTS), 2207 is a payload satellite owned by USAF SSD (US) in GEO that was launched on Thu, 16 Jun 1966 UTC via a TITAN IIIC launch vehicle from the Air Force Eastern Test Range (AFETR). Payload-class satellites include a variety of spacecraft equipped with specific instruments for various scientific and technological missions. These include communications satellites like Starlink; space stations such as the ISS; scientific satellites like the Hubble; Earth observation satellites from companies like Planet Labs, Umbra, and HawkEye 360; GPS; miniature CubeSats for education and research; and military/defense satellites.

Not visible in the next 10 days
Identifier
2207, 1966-053A
Orbit
GEO
Country
Flag of USUS
Related business
Manufacturer
GE/MSVD
Mission
Non-operational Defense Technology
Bus & Motor
GGTS, Unknown motor
Mass
47 kg wet, 47 kg dry
Launch date (UTC)
1966-06-16 (59 years ago)
Launch vehicle
TITAN IIIC
Launch site
Air Force Eastern Test Range (AFETR)
Object type
Payload
Rocket body
Debris
Shape & HBR
Poly + 2 Rod, 16.0 m
Radar Cross Section
0.926 m², Medium (>0.1 m² and < 1m²)

Expand to show TLE details & history
Last TLE update: 14 hours ago

TLE from 14 hours ago
0 OPS 9381 (GGTS)
1 02207U 66053A   25243.17043120 -.00000066  00000-0  00000-0 0  9998
2 02207   8.1132  46.1022 0027815 223.8761 139.5098  1.08008929232835
Epoch: 2025-08-31T04:05Z
TLE epoch observation values (Epoch: 2025-08-31T04:05:25.255Z)
Latitude
0.49154°
Longitude
8.69605°
Altitude
33,832.111 km
Speed
3.145 km/s
True Right ascension
03h 18m 34s
True Declination
0° 29' 28"
Sunlit
Object was in daylight at epoch
Visualization orbit readout
Latitude
Unknown
Longitude
Unknown
Altitude
Unknown
Speed
Unknown
Apparent Right ascension
Unknown
Apparent Declination
Unknown
Sunlit
N/A
Visualization observer readout
Local Sidereal Time
09:22:12
Azimuth
Unknown
Elevation
Unknown
Doppler factor
Unknown
Orbital elements
Apogee altitude
33,860.831 km
Perigee altitude
33,637.603 km
Semi-major axis
40,127.354 km
Eccentricity
0.00278
Inclination
8.1132°
RAAN
46.1022°
Arg. of periapsis
223.8761°
True anomaly
139.71621°
Mean anomaly
139.5098°
Eccentric anomaly
139.61306°
Mean motion
0.27001 °/min
Orbital period
1,333.28 mins
BSTAR
0
Loading maneuver chart data...
Computing Atmospheric mass density...
Loading historical data...
Loading historical data...
Loading historical data...
Loading historical data...
Loading historical data...
Loading historical data...
Loading historical data...

Documentation

Showing up to 5 results
|